TimePST,TemperatureF,Dew PointF,Humidity,Sea Level PressureIn,VisibilityMPH,Wind Direction,Wind SpeedMPH,Gust SpeedMPH,PrecipitationIn,Events,Conditions,WindDirDegrees,DateUTC
12:15 AM,30.2,30.2,100,29.87,5.0,NW,12.7,-,N/A,,Overcast,310,2013-02-09 08:15:00
12:35 AM,30.2,30.2,100,29.87,5.0,WNW,8.1,-,N/A,Rain,Freezing Rain,290,2013-02-09 08:35:00
12:55 AM,30.2,30.2,100,29.87,1.2,WNW,13.8,17.3,0.06,Snow,Light Snow,300,2013-02-09 08:55:00
1:15 AM,30.2,30.2,100,29.88,4.0,WNW,13.8,21.9,0.05,Rain,Freezing Rain,290,2013-02-09 09:15:00
1:35 AM,30.2,30.2,100,29.87,2.5,WNW,11.5,17.3,0.05,,Overcast,300,2013-02-09 09:35:00
1:55 AM,30.2,30.2,100,29.87,6.0,NW,11.5,-,0.05,Rain,Freezing Rain,310,2013-02-09 09:55:00
2:15 AM,30.2,30.2,100,29.87,4.0,NW,10.4,-,N/A,Rain,Freezing Rain,310,2013-02-09 10:15:00
2:35 AM,30.2,30.2,100,29.87,3.0,WNW,12.7,-,N/A,Rain,Freezing Rain,300,2013-02-09 10:35:00
2:55 AM,30.2,30.2,100,29.87,5.0,WNW,11.5,-,0.01,Rain,Freezing Rain,300,2013-02-09 10:55:00
3:15 AM,32.0,32.0,100,29.87,4.0,WNW,12.7,-,N/A,Rain,Light Rain,300,2013-02-09 11:15:00
3:55 AM,30.2,30.2,100,29.87,5.0,WNW,16.1,19.6,N/A,,Overcast,300,2013-02-09 11:55:00
4:15 AM,30.2,30.2,100,29.88,5.0,WNW,12.7,-,N/A,,Overcast,300,2013-02-09 12:15:00
4:35 AM,30.2,30.2,100,29.88,5.0,WNW,13.8,20.7,N/A,,Overcast,300,2013-02-09 12:35:00
4:55 AM,30.2,30.2,100,29.88,6.0,WNW,15.0,18.4,N/A,,Mostly Cloudy,300,2013-02-09 12:55:00
5:15 AM,30.2,30.2,100,29.88,10.0,WNW,16.1,20.7,N/A,,Overcast,300,2013-02-09 13:15:00
5:35 AM,30.2,28.4,93,29.88,9.0,NW,15.0,-,N/A,,Overcast,310,2013-02-09 13:35:00
5:55 AM,30.2,28.4,93,29.89,8.0,WNW,17.3,21.9,N/A,,Overcast,300,2013-02-09 13:55:00
6:15 AM,30.2,28.4,93,29.89,7.0,WNW,19.6,-,N/A,,Overcast,300,2013-02-09 14:15:00
6:35 AM,30.2,30.2,100,29.89,7.0,WNW,17.3,24.2,N/A,,Overcast,300,2013-02-09 14:35:00
6:55 AM,30.2,28.4,93,29.90,6.0,WNW,16.1,21.9,N/A,,Overcast,300,2013-02-09 14:55:00
7:15 AM,30.2,30.2,100,29.91,5.0,WNW,17.3,-,N/A,,Overcast,300,2013-02-09 15:15:00
7:35 AM,28.4,28.4,100,29.91,5.0,WNW,16.1,-,N/A,,Mostly Cloudy,300,2013-02-09 15:35:00
7:55 AM,28.4,28.4,100,29.92,8.0,WNW,15.0,20.7,N/A,,Overcast,290,2013-02-09 15:55:00
8:15 AM,30.2,28.4,93,29.93,9.0,WNW,13.8,-,N/A,,Mostly Cloudy,300,2013-02-09 16:15:00
8:35 AM,32.0,28.4,87,29.94,10.0,NW,15.0,-,N/A,,Partly Cloudy,310,2013-02-09 16:35:00
8:55 AM,32.0,26.6,80,29.95,10.0,NW,17.3,23.0,N/A,,Clear,310,2013-02-09 16:55:00
9:15 AM,32.0,24.8,75,29.95,10.0,NW,15.0,23.0,N/A,,Partly Cloudy,310,2013-02-09 17:15:00
9:35 AM,32.0,24.8,75,29.96,9.0,NW,17.3,-,N/A,,Scattered Clouds,310,2013-02-09 17:35:00
9:55 AM,32.0,24.8,75,29.97,10.0,NW,13.8,21.9,N/A,,Partly Cloudy,310,2013-02-09 17:55:00
10:15 AM,33.8,24.8,70,29.97,10.0,NW,18.4,-,N/A,,Partly Cloudy,310,2013-02-09 18:15:00
10:35 AM,33.8,26.6,75,29.97,9.0,NW,17.3,24.2,N/A,,Clear,310,2013-02-09 18:35:00
10:55 AM,35.6,24.8,65,29.97,7.0,NW,17.3,24.2,N/A,,Clear,310,2013-02-09 18:55:00
11:15 AM,35.6,26.6,70,29.96,10.0,NW,18.4,25.3,N/A,,Clear,310,2013-02-09 19:15:00
11:35 AM,35.6,28.4,75,29.96,10.0,NW,19.6,24.2,N/A,,Clear,320,2013-02-09 19:35:00
11:55 AM,35.6,26.6,70,29.96,10.0,NW,18.4,23.0,N/A,,Clear,310,2013-02-09 19:55:00
12:15 PM,37.4,28.4,70,29.96,10.0,NW,19.6,25.3,N/A,,Scattered Clouds,310,2013-02-09 20:15:00
12:35 PM,35.6,26.6,70,29.96,10.0,NW,20.7,25.3,N/A,,Mostly Cloudy,310,2013-02-09 20:35:00
12:55 PM,37.4,26.6,65,29.96,10.0,WNW,19.6,28.8,N/A,,Mostly Cloudy,300,2013-02-09 20:55:00
1:15 PM,37.4,24.8,60,29.96,10.0,NW,21.9,28.8,N/A,,Partly Cloudy,310,2013-02-09 21:15:00
1:35 PM,37.4,24.8,60,29.97,10.0,NW,18.4,23.0,N/A,,Scattered Clouds,310,2013-02-09 21:35:00
1:55 PM,37.4,24.8,60,29.97,10.0,NW,16.1,20.7,N/A,,Scattered Clouds,310,2013-02-09 21:55:00
2:15 PM,37.4,24.8,60,29.96,10.0,NW,17.3,20.7,N/A,,Partly Cloudy,310,2013-02-09 22:15:00
2:35 PM,37.4,24.8,60,29.96,10.0,NW,16.1,24.2,N/A,,Clear,320,2013-02-09 22:35:00
2:55 PM,37.4,24.8,60,29.96,10.0,NW,17.3,25.3,N/A,,Clear,310,2013-02-09 22:55:00
3:15 PM,37.4,23.0,56,29.95,10.0,NW,18.4,21.9,N/A,,Clear,310,2013-02-09 23:15:00
3:55 PM,37.4,23.0,56,29.96,10.0,NW,16.1,-,N/A,,Clear,310,2013-02-09 23:55:00
4:15 PM,35.6,23.0,60,29.96,10.0,NW,17.3,21.9,N/A,,Clear,310,2013-02-10 00:15:00
4:35 PM,35.6,23.0,60,29.96,10.0,NW,17.3,21.9,N/A,,Clear,310,2013-02-10 00:35:00
4:55 PM,33.8,23.0,65,29.96,10.0,NW,15.0,-,N/A,,Clear,310,2013-02-10 00:55:00
5:15 PM,32.0,23.0,69,29.97,10.0,NW,16.1,20.7,N/A,,Clear,310,2013-02-10 01:15:00
5:35 PM,32.0,23.0,69,29.98,10.0,NW,16.1,-,N/A,,Clear,310,2013-02-10 01:35:00
5:55 PM,32.0,23.0,69,29.99,10.0,WNW,13.8,-,N/A,,Clear,290,2013-02-10 01:55:00
6:15 PM,32.0,23.0,69,30.00,10.0,WNW,13.8,18.4,N/A,,Clear,300,2013-02-10 02:15:00
6:35 PM,32.0,23.0,69,30.00,10.0,WNW,11.5,-,N/A,,Clear,300,2013-02-10 02:35:00
6:55 PM,30.2,23.0,75,30.00,10.0,WNW,10.4,-,N/A,,Clear,290,2013-02-10 02:55:00
7:15 PM,30.2,23.0,75,30.01,10.0,WNW,10.4,-,N/A,,Clear,300,2013-02-10 03:15:00
7:35 PM,32.0,23.0,69,30.01,10.0,WNW,12.7,-,N/A,,Clear,290,2013-02-10 03:35:00
7:55 PM,30.2,23.0,75,30.01,10.0,NW,6.9,-,N/A,,Clear,320,2013-02-10 03:55:00
8:15 PM,30.2,23.0,75,30.01,10.0,NW,8.1,-,N/A,,Clear,320,2013-02-10 04:15:00
8:35 PM,28.4,23.0,80,30.01,10.0,NW,8.1,-,N/A,,Clear,310,2013-02-10 04:35:00
8:55 PM,26.6,21.2,80,30.02,10.0,WNW,3.5,-,N/A,,Clear,300,2013-02-10 04:55:00
9:15 PM,26.6,23.0,86,30.02,10.0,NW,5.8,-,N/A,,Clear,320,2013-02-10 05:15:00
9:35 PM,26.6,21.2,80,30.02,10.0,NW,4.6,-,N/A,,Clear,320,2013-02-10 05:35:00
9:55 PM,26.6,21.2,80,30.02,10.0,NW,3.5,-,N/A,,Clear,320,2013-02-10 05:55:00
10:15 PM,26.6,19.4,74,30.02,10.0,NNW,4.6,-,N/A,,Clear,340,2013-02-10 06:15:00
10:35 PM,26.6,19.4,74,30.03,10.0,Calm,Calm,-,N/A,,Clear,0,2013-02-10 06:35:00
10:55 PM,26.6,19.4,74,30.03,10.0,NW,3.5,-,N/A,,Clear,320,2013-02-10 06:55:00
11:15 PM,26.6,17.6,69,30.04,10.0,West,4.6,-,N/A,,Clear,280,2013-02-10 07:15:00
11:35 PM,26.6,17.6,69,30.04,10.0,Calm,Calm,-,N/A,,Clear,0,2013-02-10 07:35:00
11:55 PM,26.6,17.6,69,30.04,10.0,North,3.5,-,N/A,,Clear,350,2013-02-10 07:55:00